Regional Weather Roundup
Issued by NWS

Home | Current Version | Previous Version | Graphics & Text | Print | Product List | Glossary On
Versions: 1 2 3 4 5 6 7 8 9 10 11 12 13 14 15 16 17 18 19 20 21 22 23 24 25 26 27 28 29 30 31 32 33 34 35 36 37 38 39 40 41 42 43 44 45 46 47 48 49 50
000
ASUS43 KLOT 030512
RWRIL

ILLINOIS REGIONAL WEATHER ROUNDUP
NATIONAL WEATHER SERVICE CHICAGO/ROMEOVILLE IL
1100 PM CST FRI DEC 02 2016

NOTE: "FAIR" INDICATES FEW OR NO CLOUDS BELOW 12,000 FEET WITH NO
SIGNIFICANT WEATHER AND/OR OBSTRUCTIONS TO VISIBILITY.

* THESE STATIONS ARE NOT UNDER NWS QUALITY CONTROL. THEY ALSO MAY NOT
  REPORT WEATHER SUCH AS PRECIPITATION OR FOG.

ILZ001-002-007-009-015-016-024-030600-
NORTHWEST ILLINOIS

CITY           SKY/WX    TMP DP  RH WIND       PRES   REMARKS
MOLINE         CLOUDY    35  25  66 NW8       30.34S WCI  29
STERLING*      CLOUDY    34  25  69 W9        30.33F WCI  27
SAVANNA*       CLOUDY    33  24  69 NW8       30.33F WCI  26
$$

ILZ003-004-008-010-011-017-018-030600-
NORTH CENTRAL ILLINOIS

CITY           SKY/WX    TMP DP  RH WIND       PRES   REMARKS
ROCKFORD       CLOUDY    33  22  63 NW7       30.34S WCI  27
FREEPORT*      CLOUDY    31  25  77 NW3       30.34S
ROCHELLE*      CLOUDY    32  26  78 N3        30.33S
DE KALB*       CLOUDY    32  24  71 NW8       30.32F WCI  25
$$

ILZ005-006-012>014-019>023-030600-
NORTHEAST ILLINOIS

CITY           SKY/WX    TMP DP  RH WIND       PRES   REMARKS
CHICAGO-OHARE  CLOUDY    34  24  67 SW9       30.32R WCI  27
CHICAGO-MIDWAY CLOUDY    36  22  56 W9        30.32S WCI  29
AURORA         CLOUDY    34  26  72 NW7       30.32F WCI  28
LANSING*       CLOUDY    35  27  72 W6        30.32S WCI  30
JOLIET*        CLOUDY    36  26  68 N6        30.33F WCI  31
WAUKEGAN       CLOUDY    33  23  66 SW3       30.31R
DUPAGE AIRPORT CLOUDY    33  23  66 W7        30.31S WCI  27
KANKAKEE*      CLOUDY    36  27  71 NW5       30.33F WCI  32
WHEELING       CLOUDY    34  23  64 NW6       30.33S WCI  29
MORRIS*        CLOUDY    34  28  78 CALM      30.31F
ROMEOVILLE*    CLOUDY    33  27  78 NW6       30.32F WCI  28
NORTHERLY ISL    N/A     36  24  62 W6          N/A  WCI  31
$$

LMZ740>746-030600-
SOUTHERN LAKE MICHIGAN

STATION/POSITION SKY/WX   TEMP    WIND        PRES    VSBY  WAVE
                          AIR SEA DIR/SP/G                  HT/PER
                          (F)     (DEG/KT/KT) (MB)    (MI)  (FT/S)
SOUTHERN BUOY              37 49  300/ 10/ 12 1026.0R         2/ 5
HARRISON CRIB              37     310/ 11/ 12   N/A
BURNHAM HARBOR             36     280/  8/ 10   N/A
CALUMET HARBOR             36     250/  5/  8 1026.2R
BURNS HARBOR               39     250/ 12/ 18 1026.4S
MICHIGAN CITY              38     260/  5/  6   N/A
$$

ILZ025>027-034>036-040-047-049-050-058-095>099-030600-
WEST-CENTRAL ILLINOIS

CITY           SKY/WX    TMP DP  RH WIND       PRES   REMARKS
QUINCY         CLOUDY    36  31  82 E3        30.34R
GALESBURG*     CLOUDY    34  29  82 N6        30.34S WCI  29
MACOMB*        CLOUDY    36  32  87 NE6       30.35S WCI  31
JACKSONVILLE*  CLOUDY    36  31  83 CALM      30.35R
PITTSFIELD*    PTCLDY    31  28  90 NE5       30.35R WCI  26
$$

ILZ028>032-037-038-041>044-048-051>054-059>061-030600-
CENTRAL ILLINOIS

CITY           SKY/WX    TMP DP  RH WIND       PRES   REMARKS
PONTIAC        CLOUDY    35  29  79 NW13      30.34F WCI  27
BLOOMINGTON    CLOUDY    35  27  72 N9        30.33F WCI  28
DECATUR        CLOUDY    40  31  70 N7        30.34R
PEORIA         CLOUDY    37  27  67 N3        30.34
LACON*         CLOUDY    34  27  75 NW3       30.34F
LINCOLN*       CLOUDY    39  31  75 N5        30.34S
SPRINGFIELD    CLOUDY    40  32  73 N5        30.35R
TAYLORVILLE    CLOUDY    37  34  88 CALM      30.34R
$$

ILZ033-039-045-046-055>057-062-063-030600-
EAST-CENTRAL ILLINOIS

CITY           SKY/WX    TMP DP  RH WIND       PRES   REMARKS
CHAMPAIGN      CLOUDY    38  31  76 NW6       30.33S WCI  33
RANTOUL*       CLOUDY    39  32  77 NW9       30.33S WCI  32
PARIS*         CLOUDY    38  35  90 NW3       30.34S
$$

ILZ079-100>102-030600-
SOUTHWEST ILLINOIS

CITY           SKY/WX    TMP DP  RH WIND       PRES   REMARKS
ALTON          PTCLDY    30  29  94 CALM      30.36R
BELLEVILLE     PTCLDY    29  29  99 W2        30.35R
SPARTA*        PTCLDY    33  30  88 CALM      30.37R
$$

ILZ064>066-069>071-074>076-080>082-084>086-088>090-092>094-030600-
SOUTH-CENTRAL ILLINOIS

CITY           SKY/WX    TMP DP  RH WIND       PRES   REMARKS
CARBONDALE     CLEAR     32  31  96 SW3       30.38R
CAIRO*         PTCLDY    36  31  82 CALM      30.36R
EFFINGHAM*     CLOUDY    38  36  93 CALM      30.35F
MARION         CLEAR     36  32  87 CALM      30.38R
CENTRALIA*     CLOUDY    31  30  99 CALM      30.34R
SALEM*         PTCLDY    33  31  94 CALM      30.34S
METROPOLIS*    CLEAR     38  31  74 CALM      30.37R
$$

ILZ067-068-072-073-078-083-087-091-030600-
SOUTHEAST ILLINOIS

CITY           SKY/WX    TMP DP  RH WIND       PRES   REMARKS
LAWRENCEVILLE  CLOUDY    40  32  73 CALM      30.35F
FLORA*         CLOUDY    36  33  90 CALM      30.34F
FAIRFIELD*     CLOUDY    31  31  96 CALM      30.34F
HARRISBURG*    CLEAR     35  31  87 CALM      30.36S
ROBINSON*      CLOUDY    38  33  84 NW3       30.36F
CARMI*         PTCLDY    30  30  98 CALM      30.35S
$$

ABBREVIATIONS USED IN REMARKS
   TC - TEMPERATURE IN CELSIUS
  WCI - WIND CHILL INDEX
   HX - HEAT INDEX
  VSB - VISIBILITY
$$





USA.gov is the U.S. government's official web portal to all federal, state and local government web resources and services.